User: anonymous   Login
Location: ???????
(55.4362°N, 38.1183°E)
Time: 07:57:12
(UTC+00:00)
Language:

DMSP 5D-2 F13 DEB - Orbit

View from above orbital plane
View from above orbital plane
View from above satellite
View from above satellite

Ground track
Ground track

The orbit data is extracted from the following two-line orbital elements,

1 42328U 95015JW  22028.17618068  .00003245  00000-0  15965-2 0  9992
2 42328  98.8114  14.7675 0042878 183.1265 176.9648 14.17821267323656
Epoch (UTC): 28 January 2022 04:13:42
Eccentricity: 0.0042878
inclination: 98.8114°
perigee height: 802 km
apogee height: 863 km
right ascension of ascending node: 14.7675°
argument of perigee: 183.1265°
revolutions per day: 14.17821267
mean anomaly at epoch: 176.9648°
orbit number at epoch: 32365

The dashed part of the orbit path shows where the satellite is in the earth's shadow,  

DLR